マクノート彗星

284P/McNaught (2014)

English version
Home page
Updated on February 27, 2017

---------------------------------------------------------------------

・ プロフィール

符号 284P/2013 J1
検出日 2013年5月1日
検出光度 21.1等
検出者 J. V. Scotti (Spacewatch, Kitt Peak)

・ 写真集

・ 軌道要素

Epoch 2014 Sept. 20.0 TT = JDT 2456920.5
T 2014 Sept. 2.49264 TT                                 MPCW
q   2.2894596            (2000.0)            P               Q
n   0.13998670     Peri.  202.86273     +0.97013514     +0.21081372
a   3.6734844      Node   144.29311     -0.17836785     +0.95521138
e   0.3767608      Incl.   11.86308     -0.16438587     +0.20767473
P   7.04
From 1642 observations 2007 Apr. 17-2015 Feb. 12, mean residual 0".5.

・ 星図

・ 光度変化

        m1 = 7.0 + 5 logΔ + 20.0 log r

---------------------------------------------------------------------

軌道要素はM.P.E.C. 2015-G03に掲載されたものです。
星図はステラナビゲータ Ver.8 (アストロアーツ) で作成したものです。
光度グラフはComet for Windowsで作成したものです。

---------------------------------------------------------------------

Copyright(C) Seiichi Yoshida (comet@aerith.net). All rights reserved.